Dewpoint
36 42 50 49 45 45 45 48 49 50 50 50 48 48 44 42 45 45 44 45 45 46 47 47 50 51 51 52 52 52 51 50
35 38 38 39 40 37 35 37 38 39 39 40 39 38 40 41 42 43 43 44 44 43 44 43 43 43 43 46 49 49 50 51
34 34 35 34 33 35 39 40 41 40 40 40 40 39 40 41 42 42 42 42 42 39 40 40 41 41 40 41 41 45 47 48
30 31 31 32 32 36 40 41 41 41 41 41 41 41 40 40 40 40 40 40 40 39 37 38 37 39 38 38 39 39 39 43
29 31 31 31 32 37 40 40 40 40 40 39 38 38 37 39 39 38 37 37 37 38 37 37 38 37 37 38 38 39 39 38
30 31 31 31 33 38 40 40 39 39 39 38 38 36 37 38 37 36 35 35 35 35 35 34 36 37 36 36 36 38 39 39
30 31 31 31 33 38 39 39 38 38 38 38 37 35 36 36 36 35 34 34 33 33 33 33 34 35 35 35 35 35 36 38
30 31 29 30 35 38 38 38 37 37 36 37 37 36 36 36 35 35 33 32 32 32 33 34 34 34 35 35 34 34 34 34
30 28 29 33 38 38 38 38 37 36 36 35 36 35 36 36 35 34 33 32 32 33 33 34 34 34 34 34 33 33 33 35
27 28 30 38 39 38 38 37 37 37 36 36 35 35 34 33 34 34 34 33 32 33 33 32 33 33 32 32 32 32 32 32
27 28 32 38 39 39 38 38 37 37 36 36 35 35 34 34 34 34 35 34 34 34 32 32 32 32 31 30 29 30 30 32
26 27 32 38 39 39 38 38 37 37 37 36 35 35 35 34 34 35 37 34 36 35 33 32 32 30 30 29 29 29 30 30
25 25 32 39 39 39 38 37 37 37 37 37 36 36 36 35 35 36 35 36 36 34 35 34 31 31 30 30 29 30 30 30
23 24 26 37 38 39 38 37 37 37 38 37 37 36 36 35 35 36 37 37 34 35 35 34 32 31 31 31 30 30 30 30
21 23 26 32 38 38 38 38 36 36 37 37 36 36 36 35 35 36 36 36 34 34 34 34 33 32 31 32 32 32 32 33
22 23 28 35 37 37 37 37 36 36 36 36 37 37 36 37 37 37 35 35 34 34 34 33 34 33 33 34 33 33 32 31
26 27 28 30 34 35 36 36 35 36 36 37 37 37 37 38 38 38 34 33 33 32 34 33 33 33 34 34 33 34 30 32
30 34 36 37 36 33 35 35 35 35 36 36 38 38 36 38 38 37 35 33 33 32 33 33 33 34 33 33 32 31 31 30
37 38 38 39 39 36 35 34 35 35 35 36 38 38 37 36 35 35 36 35 33 32 32 32 31 33 34 35 34 31 31 31
Lifted_Index
4 4 3 3 3 3 3 2 3 3 3 4 5 6 7 7 8 8 7 7 6 6 6 5 5 4 3 3 3 3 3 3
4 4 4 3 4 4 4 4 4 5 5 6 7 7 8 8 8 8 8 8 7 7 7 7 6 5 5 4 4 4 4 4
4 4 4 4 5 5 5 6 6 7 7 7 8 8 8 9 9 9 9 9 9 9 9 9 8 8 7 7 6 6 5 5
3 4 4 5 6 6 7 7 7 8 8 8 8 7 8 9 10 11 11 11 11 11 10 10 10 9 9 9 8 8 8 7
3 4 5 6 6 7 7 8 8 8 8 7 7 7 8 9 11 12 13 13 13 13 13 13 12 12 11 11 10 10 10 9
4 4 5 6 6 7 7 8 8 8 8 7 7 7 7 9 11 12 13 14 15 15 15 15 15 15 14 14 13 12 12 11
4 5 5 5 6 7 7 8 8 8 8 8 8 8 8 9 10 12 13 14 15 15 16 16 17 16 16 16 15 15 14 14
5 4 4 5 5 7 7 8 8 8 8 8 8 8 9 10 11 13 14 14 14 15 15 16 16 17 16 16 16 16 15 15
4 4 4 5 6 7 8 8 8 8 8 8 9 9 10 11 13 14 14 14 14 14 15 15 16 16 16 16 16 16 15 15
3 3 4 5 7 7 7 8 8 8 9 9 9 10 11 12 13 14 14 14 14 14 14 15 16 16 16 16 16 15 15 15
3 4 5 6 7 7 7 8 8 9 9 9 9 10 11 12 13 13 13 13 14 14 14 15 15 16 16 16 16 15 15 15
4 5 6 7 7 7 7 8 8 9 9 9 9 10 11 12 12 13 13 13 14 14 14 15 15 16 16 16 15 15 14 14
5 6 6 7 7 7 7 8 8 9 9 10 10 10 10 11 12 13 13 14 14 15 15 15 15 15 15 14 14 13 12 12
6 6 7 7 7 7 7 8 8 9 10 10 10 10 10 12 13 13 14 14 14 15 15 15 15 14 14 13 12 11 11 11
6 6 7 7 7 7 7 8 8 9 10 10 10 10 11 12 13 13 14 14 14 14 14 14 14 13 12 12 11 11 11 11
6 6 6 6 6 6 7 7 8 9 10 10 10 10 12 13 13 13 13 13 14 14 14 14 13 12 12 11 11 11 11 11
6 6 5 5 5 6 6 7 8 8 9 10 10 11 12 13 13 13 13 13 13 14 14 14 13 12 11 11 11 11 10 10
5 5 5 5 5 6 6 6 7 8 9 10 10 11 12 12 12 12 12 13 13 13 13 13 12 11 11 11 11 10 10 9
5 5 4 5 5 5 6 6 7 8 9 10 10 11 12 12 11 11 12 13 13 13 13 13 12 11 11 11 10 10 9 9